Weather History for Bedford, MA

Change the Weather History Date:

Tuesday, February 26, 2013

  Actual Average Record
Temperature  
Mean Temperature 32 °F -  
Max Temperature 39 °F 38 °F 63 °F (2002)
Min Temperature 24 °F 19 °F -7 °F (1993)
Degree Days  
Heating Degree Days 34    
Moisture  
Dew Point 26 °F    
Average Humidity 85    
Maximum Humidity 100    
Minimum Humidity 55    
Precipitation  
Precipitation 0.00 in - - ()
Sea Level Pressure  
Sea Level Pressure 30.29 in    
Wind  
Wind Speed 2 mph (East)    
Max Wind Speed 14 mph    
Max Gust Speed 72 mph    
Visibility 5 miles    
Events Fog    
Averages and records for this station are not official NWS values.
T = Trace of Precipitation, MM = Missing Value Source: NWS Daily Summary

Daily Weather History Graph

Daily Weather History Graph

Search for Another Location

Airport:

Trip Planner

Search our weather history database for the weather conditions in past years. The results will help you decide how hot, cold, wet, or windy it might be!

Date:

Astronomy

Feb. 26, 2013 Rise Set
Actual Time 6:25 AM EST 5:31 PM EST
Civil Twilight 5:56 AM EST 5:59 PM EST
Nautical Twilight 5:24 AM EST 6:32 PM EST
Astronomical Twilight 4:51 AM EST 7:05 PM EST
Moon 6:47 PM EST (2/26) 6:24 AM EST (2/26)
Length of Visible Light 12h 03m
Length of Day
11h 06m
Full, 99% of the Moon is Illuminated
Feb 26
Full
Mar 4
Last Quarter
Mar 11
New
Mar 19
First Quarter
Mar 27
Full

Hourly Weather History & Observations

Time (EST) Temp. Windchill Dew Point Humidity Pressure Visibility Wind Dir Wind Speed Gust Speed Precip Events Conditions
12:56 AM 28.9 °F - 28.0 °F 96% 30.28 in 2.5 mi Calm Calm - N/A   Clear
1:15 AM 28.4 °F - 26.6 °F 93% 30.24 in 0.8 mi Calm Calm - N/A   Partly Cloudy
1:44 AM 28.4 °F - 26.6 °F 93% 30.24 in 0.2 mi Calm Calm - N/A Fog Light Freezing Fog
1:56 AM 27.0 °F - 26.1 °F 96% 30.28 in 0.2 mi Calm Calm - N/A Fog Light Freezing Fog
2:06 AM 28.4 °F - 26.6 °F 93% 30.23 in 0.8 mi Calm Calm - N/A   Overcast
2:25 AM 26.6 °F - 26.6 °F 100% 30.23 in 0.5 mi Calm Calm - N/A Fog Light Freezing Fog
2:29 AM 26.6 °F - 26.6 °F 100% 30.22 in 0.2 mi Calm Calm - N/A Fog Light Freezing Fog
2:48 AM 26.6 °F - 24.8 °F 93% 30.23 in 0.2 mi Calm Calm - N/A Fog Light Freezing Fog
2:56 AM 27.0 °F - 26.1 °F 96% 30.29 in 0.2 mi Calm Calm - N/A Fog Light Freezing Fog
3:05 AM 26.6 °F - 26.6 °F 100% 30.26 in 1.0 mi Calm Calm - N/A   Mist
3:10 AM 26.6 °F - 26.6 °F 100% 30.25 in 3.0 mi Calm Calm - N/A   Mist
3:56 AM 27.0 °F - 26.1 °F 96% 30.32 in 4.0 mi Calm Calm - N/A   Overcast
4:25 AM 26.6 °F - 24.8 °F 93% 30.27 in 1.5 mi Calm Calm - N/A   Mostly Cloudy
4:39 AM 26.6 °F - 24.8 °F 93% 30.27 in 3.0 mi Calm Calm - N/A   Scattered Clouds
4:49 AM 24.8 °F - 24.8 °F 100% 30.28 in 1.8 mi Calm Calm - N/A   Partly Cloudy
4:56 AM 25.0 °F - 24.1 °F 96% 30.33 in 0.5 mi Calm Calm - N/A Fog Light Freezing Fog
5:56 AM 25.0 °F - 24.1 °F 96% 30.34 in 1.0 mi Calm Calm - N/A   Mostly Cloudy
6:05 AM 26.6 °F - 24.8 °F 93% 30.29 in 3.0 mi Calm Calm - N/A   Mostly Cloudy
6:15 AM 24.8 °F - 24.8 °F 100% 30.29 in 4.0 mi Calm Calm - N/A   Mostly Cloudy
6:24 AM 24.8 °F - 23.0 °F 93% 30.30 in 6.0 mi Calm Calm - N/A   Mostly Cloudy
6:39 AM 24.8 °F - 23.0 °F 93% 30.30 in 0.8 mi Calm Calm - N/A   Overcast
6:47 AM 26.6 °F - 24.8 °F 93% 30.30 in 0.2 mi Calm Calm - N/A Fog Light Freezing Fog
6:56 AM 24.1 °F - 24.1 °F 100% 30.35 in 0.2 mi Calm Calm - N/A Fog Light Freezing Fog
7:03 AM 24.8 °F - 24.8 °F 100% 30.30 in 0.2 mi Calm Calm - N/A Fog Light Freezing Fog
7:56 AM 27.0 °F - 26.1 °F 96% 30.36 in 0.5 mi Calm Calm - N/A Fog Light Freezing Fog
8:00 AM 26.6 °F - 26.6 °F 100% 30.31 in 0.2 mi Calm Calm - N/A Fog Light Freezing Fog
8:08 AM 28.4 °F - 26.6 °F 93% 30.32 in 3.0 mi Calm Calm - N/A   Scattered Clouds
8:56 AM 30.9 °F - 30.9 °F 100% 30.37 in 5.0 mi Calm Calm - N/A   Scattered Clouds
9:56 AM 37.9 °F - 32.0 °F 79% 30.37 in 10.0 mi Calm Calm - N/A   Scattered Clouds
10:38 AM 39.2 °F 33.6 °F 28.4 °F 65% 30.31 in 10.0 mi East 8.1 mph - N/A   Mostly Cloudy
10:56 AM 39.9 °F 34.5 °F 28.0 °F 63% 30.36 in 10.0 mi ESE 8.1 mph - N/A   Mostly Cloudy
11:07 AM 39.2 °F 33.6 °F 26.6 °F 61% 30.31 in 10.0 mi SE 8.1 mph - N/A   Mostly Cloudy
11:56 AM 39.9 °F 32.9 °F 27.0 °F 60% 30.35 in 10.0 mi ESE 11.5 mph - N/A   Overcast
12:56 PM 39.9 °F 35.8 °F 27.0 °F 60% 30.35 in 10.0 mi Variable 5.8 mph - N/A   Overcast
1:56 PM 39.9 °F 33.4 °F 27.0 °F 60% 30.35 in 10.0 mi ESE 10.4 mph - N/A   Overcast
2:56 PM 39.9 °F 32.5 °F 27.0 °F 60% 30.32 in 10.0 mi East 12.7 mph - N/A   Mostly Cloudy
3:56 PM 39.0 °F 31.0 °F 24.1 °F 55% 30.32 in 10.0 mi ESE 13.8 mph - N/A   Overcast
4:56 PM 37.0 °F 29.8 °F 26.1 °F 65% 30.31 in 10.0 mi East 10.4 mph - N/A   Partly Cloudy
5:56 PM 36.0 °F 30.3 °F 28.0 °F 73% 30.32 in 10.0 mi East 6.9 mph - N/A   Clear
6:56 PM 35.1 °F 29.3 °F 26.1 °F 70% 30.31 in 10.0 mi East 6.9 mph - N/A   Clear
7:20 PM 33.8 °F 28.6 °F 26.6 °F 75% 30.25 in 10.0 mi East 5.8 mph 72.5 mph N/A   Squalls
7:56 PM 35.1 °F 31.0 °F 26.1 °F 70% 30.30 in 10.0 mi ENE 4.6 mph - N/A   Clear
8:56 PM 34.0 °F 29.8 °F 28.0 °F 79% 30.28 in 10.0 mi ENE 4.6 mph - N/A   Clear
9:33 PM 33.8 °F 24.8 °F 28.4 °F 81% 30.22 in 10.0 mi ENE 12.7 mph 70.2 mph N/A   Squalls
9:56 PM 33.1 °F 28.7 °F 27.0 °F 78% 30.26 in 10.0 mi NNE 4.6 mph - N/A   Clear
10:56 PM 33.1 °F 27.7 °F 27.0 °F 78% 30.22 in 10.0 mi NE 5.8 mph - N/A   Partly Cloudy
11:37 PM 33.8 °F 29.6 °F 28.4 °F 81% 30.15 in 10.0 mi NE 4.6 mph - N/A   Mostly Cloudy
11:56 PM 34.0 °F 29.8 °F 28.0 °F 79% 30.20 in 10.0 mi NNE 4.6 mph - N/A   Overcast